Location: Hohenfelde
(53.8441°N, 9.6220°E)
Time: 12:17:00
(UTC+00:00)

Cosmos 1441 Rocket - Pass Details

Date: 14 July 2020
Orbit: 495 x 541 km, 81.1° (Epoch: 12 August)

Event Time Altitude Azimuth Distance (km) Brightness Sun altitude
Exits shadow 00:10:32 22° 213° (SSW) 1,208 4.5 -13.9°
Maximum altitude 00:12:55 58° 287° (WNW) 630 3.6 -13.9°
Drops below altitude 10° 00:16:50 10° 7° (N) 1,795 7.4 -13.8°
Sets 00:19:01 0° 12° (NNE) 2,683 8.9 -13.7°
